User: anonymous
Location: Caltech
(34.1382°N, 118.1253°W)
Time: 14:35:13
(UTC-07:00)
Language:

CZ-4B DEB - Orbit

View from above orbital plane
View from above orbital plane
View from above satellite
View from above satellite

Ground track
Ground track

The orbit data is extracted from the following two-line orbital elements,

1 27433U 02024D   14293.97630497  .00000619  00000-0  36453-3 0  9586
2 27433 098.8427 257.7640 0013575 273.7975 131.9525 14.11649757640260
Epoch (UTC): 20 October 2014 23:25:52
Eccentricity: 0.0013575
inclination: 98.8427°
perigee height: 844 km
apogee height: 863 km
right ascension of ascending node: 257.7640°
argument of perigee: 273.7975°
revolutions per day: 14.11649757
mean anomaly at epoch: 131.9525°
orbit number at epoch: 64026

The dashed part of the orbit path shows where the satellite is in the earth's shadow,  

DLR